Data for 09/01/2016

Time Sea-Level Adjusted Pressure Absolute Pressure Temperature Relative Humidity Dew Point   
(mb) (inHg) (mb) (inHg) (C) (F) (%) (C) (F)
00:05 1018 30.06 847 25.01 19.4 66.9 30 1.5 34.7
00:10 1018 30.06 847 25.01 19.5 67.1 26 -0.1 31.8
00:15 1018 30.06 847 25.01 19.5 67.1 26 -0.3 31.4
00:20 1018 30.06 847 25.01 19.7 67.4 26 -0.3 31.5
00:25 1018 30.06 847 25.01 19.7 67.5 28 0.8 33.5
00:30 1018 30.06 847 25.01 19.5 67.1 28 0.7 33.2
00:35 1018 30.06 848 25.04 19.8 67.6 27 0.6 33.1
00:40 1018 30.06 848 25.04 20.1 68.2 28 1.4 34.5
00:45 1018 30.06 848 25.04 20 68 29 1.5 34.7
00:50 1019 30.09 848 25.04 19.9 67.8 30 1.9 35.3
00:55 1019 30.09 848 25.04 19.7 67.5 30 2 35.7
01:00 1019 30.09 848 25.04 19.4 66.8 31 1.8 35.3
01:05 1019 30.09 848 25.04 19.1 66.3 31 1.7 35.1
01:10 1019 30.09 848 25.04 19 66.3 31 1.9 35.4
01:15 1019 30.09 848 25.04 18.6 65.4 32 1.8 35.2
01:20 1019 30.09 848 25.04 18.4 65.2 32 1.4 34.5
01:25 1019 30.09 848 25.04 18.8 65.8 31 1.4 34.6
01:30 1019 30.09 848 25.04 18.8 65.8 31 1.2 34.2
01:35 1019 30.09 848 25.04 19 66.1 30 1.2 34.1
01:40 1019 30.09 848 25.04 19 66.3 30 1.2 34.1
01:45 1019 30.09 848 25.04 19.1 66.4 30 1.1 34
01:50 1019 30.09 848 25.04 19.4 66.8 29 1.1 34
01:55 1019 30.09 848 25.04 19.3 66.7 30 1.5 34.7
02:00 1019 30.09 848 25.04 19.1 66.3 30 1.3 34.3
02:05 1019 30.09 848 25.04 18.8 65.8 34 2.8 37.1
02:10 1019 30.09 848 25.04 18.8 65.8 30 0.9 33.6
02:15 1019 30.09 848 25.04 19 66.2 30 1.4 34.4
02:20 1019 30.09 848 25.04 18.5 65.2 33 2.1 35.7
02:25 1019 30.09 848 25.04 18 64.4 33 1.8 35.3
02:30 1019 30.09 848 25.04 18.2 64.8 33 1.6 34.9
02:35 1019 30.09 848 25.04 18.3 65 32 1.5 34.7
02:40 1019 30.09 848 25.04 18.2 64.8 33 1.6 34.9
02:45 1019 30.09 848 25.04 18.3 64.9 32 1.2 34.2
02:50 1019 30.09 848 25.04 18.7 65.7 30 0.7 33.3
02:55 1019 30.09 848 25.04 19.3 66.8 30 1.4 34.4
03:00 1019 30.09 848 25.04 19.1 66.4 31 1.7 35.1
03:05 1019 30.09 848 25.04 19.2 66.6 30 1.4 34.5
03:10 1019 30.09 848 25.04 19.1 66.3 31 1.6 34.9
03:15 1019 30.09 849 25.07 18.7 65.7 31 1.4 34.5
03:20 1019 30.09 849 25.07 18.8 65.8 37 3.9 39.1
03:25 1019 30.09 849 25.07 18.5 65.4 33 2 35.6
03:30 1019 30.09 849 25.07 18.3 65 37 3.6 38.4
03:35 1019 30.09 849 25.07 18.2 64.8 33 1.9 35.3
03:40 1019 30.09 849 25.07 18 64.4 33 1.7 35
03:45 1019 30.09 849 25.07 18 64.3 33 1.7 35
03:50 1019 30.09 848 25.04 17.6 63.7 35 2.1 35.7
03:55 1019 30.09 848 25.04 17.5 63.5 34 1.4 34.6
04:00 1019 30.09 848 25.04 17.7 63.9 34 1.7 35
04:05 1019 30.09 848 25.04 17.8 64 35 2.3 36.1
04:10 1019 30.09 848 25.04 17.6 63.7 33 1.5 34.7
04:15 1019 30.09 848 25.04 17.9 64.3 33 1.6 34.9
04:20 1019 30.09 848 25.04 17.9 64.2 35 2.4 36.2
04:25 1019 30.09 848 25.04 17.7 63.8 34 1.7 35.1
04:30 1019 30.09 848 25.04 17.9 64.2 33 1.7 35
04:35 1019 30.09 848 25.04 18 64.3 33 1.6 34.8
04:40 1019 30.09 848 25.04 18.2 64.7 33 1.7 35.1
04:45 1019 30.09 848 25.04 18.3 65 33 1.9 35.3
04:50 1019 30.09 848 25.04 18.5 65.2 32 1.6 34.8
04:55 1019 30.09 848 25.04 18.5 65.4 32 1.9 35.4
05:00 1019 30.09 848 25.04 18.5 65.3 33 2 35.6
05:05 1019 30.09 848 25.04 18 64.4 34 2.1 35.8
05:10 1019 30.09 848 25.04 17.9 64.2 33 1.6 34.8
05:15 1019 30.09 848 25.04 18.3 64.9 32 1.5 34.7
05:20 1019 30.09 848 25.04 18.5 65.2 34 2.6 36.7
05:25 1019 30.09 848 25.04 18.5 65.3 36 3.4 38
05:30 1019 30.09 848 25.04 18.7 65.6 32 1.6 34.9
05:35 1019 30.09 848 25.04 19 66.2 29 0.8 33.5
05:40 1019 30.09 848 25.04 19.8 67.6 29 1.3 34.4
05:45 1019 30.09 848 25.04 20.2 68.4 30 2.1 35.8
05:50 1019 30.09 848 25.04 20.2 68.4 31 2.8 37.1
05:55 1019 30.09 848 25.04 20.1 68.2 29 1.5 34.6
06:00 1019 30.09 848 25.04 20.6 69.1 28 1.5 34.7
06:05 1018 30.06 848 25.04 20.6 69.1 29 2.1 35.8
06:10 1019 30.09 848 25.04 20.2 68.4 29 1.9 35.4
06:15 1019 30.09 848 25.04 19.9 67.7 31 2.6 36.7
06:20 1019 30.09 848 25.04 19.1 66.3 32 2 35.6
06:25 1019 30.09 848 25.04 19 66.2 31 1.8 35.3
06:30 1019 30.09 848 25.04 19.2 66.6 31 1.7 35.1
06:35 1019 30.09 848 25.04 19.1 66.5 32 2 35.7
06:40 1019 30.09 848 25.04 19.1 66.3 31 1.8 35.2
06:45 1019 30.09 848 25.04 19.3 66.7 34 3.1 37.6
06:50 1019 30.09 848 25.04 19.4 67 31 2 35.6
06:55 1019 30.09 848 25.04 19.7 67.4 30 1.6 34.9
07:00 1018 30.06 847 25.01 20.7 69.3 23 -0.9 30.4
07:05 1019 30.09 848 25.04 22.3 72.1 24 1.2 34.2
07:10 1019 30.09 848 25.04 22.1 71.7 22 -0.2 31.7
07:15 1019 30.09 848 25.04 22.6 72.7 22 0.1 32.1
07:20 1019 30.09 848 25.04 22.6 72.8 21 -0.5 31.1
07:25 1019 30.09 848 25.04 22.8 73.1 21 -0.3 31.5
07:30 1019 30.09 848 25.04 22.8 73.1 22 0.2 32.3
07:35 1019 30.09 848 25.04 22.7 72.8 23 0.5 32.9
07:40 1019 30.09 848 25.04 23.1 73.6 22 0.5 32.9
07:45 1019 30.09 849 25.07 23.3 73.9 22 0.8 33.4
07:50 1020 30.12 849 25.07 23.4 74.2 23 1.2 34.2
07:55 1020 30.12 849 25.07 23.2 73.8 25 2.2 36
08:00 1020 30.12 849 25.07 22.5 72.5 28 3.3 38
08:05 1020 30.12 849 25.07 21.6 70.9 29 3.2 37.8
08:10 1020 30.12 849 25.07 21.6 70.8 28 2.6 36.6
08:15 1020 30.12 849 25.07 21.7 71.1 29 2.9 37.1
08:20 1020 30.12 849 25.07 21.6 70.8 29 2.7 36.9
08:25 1020 30.12 849 25.07 21.7 71.1 29 3.3 37.9
08:30 1019 30.09 849 25.07 21.7 71.1 31 3.9 39
08:35 1019 30.09 849 25.07 21.7 71.1 28 2.5 36.5
08:40 1019 30.09 849 25.07 21.9 71.4 28 2.9 37.2
08:45 1019 30.09 848 25.04 21.6 70.9 30 3.4 38.1
08:50 1019 30.09 848 25.04 21.3 70.3 31 3.6 38.5
08:55 1019 30.09 848 25.04 21.3 70.3 31 3.5 38.4
09:00 1019 30.09 848 25.04 21.3 70.3 30 3.4 38
09:05 1019 30.09 848 25.04 21.3 70.3 30 3.4 38.1
09:10 1019 30.09 848 25.04 21.3 70.4 31 3.8 38.8
09:15 1019 30.09 848 25.04 21.4 70.5 31 3.7 38.7
09:20 1019 30.09 848 25.04 22 71.5 30 3.7 38.7
09:25 1019 30.09 848 25.04 22.1 71.8 30 3.9 39
09:30 1019 30.09 848 25.04 22.1 71.8 29 3.3 37.9
09:35 1019 30.09 848 25.04 22.2 72 27 2.7 36.9
09:40 1019 30.09 848 25.04 22.4 72.3 29 3.6 38.5
09:45 1019 30.09 848 25.04 22.4 72.3 29 3.6 38.5
09:50 1019 30.09 848 25.04 22.9 73.3 28 3.6 38.5
09:55 1018 30.06 848 25.04 23.7 74.6 28 4.2 39.6
10:00 1018 30.06 848 25.04 24.2 75.5 25 3.1 37.5
10:05 1018 30.06 848 25.04 24.7 76.4 24 2.8 37
10:10 1018 30.06 848 25.04 25.3 77.5 23 3.2 37.8
10:15 1018 30.06 848 25.04 25.9 78.5 21 2.1 35.8
10:20 1018 30.06 848 25.04 25.7 78.2 23 3.2 37.7
10:25 1018 30.06 848 25.04 25.6 78.1 22 2.6 36.7
10:30 1018 30.06 848 25.04 26 78.8 21 2.2 35.9
10:35 1018 30.06 848 25.04 26.5 79.7 20 1.9 35.5
10:40 1018 30.06 848 25.04 26.6 79.8 21 2.8 37
10:45 1018 30.06 848 25.04 26.7 80 20 2.2 35.9
10:50 1018 30.06 848 25.04 26.6 79.8 21 2.9 37.2
10:55 1018 30.06 847 25.01 26.4 79.4 21 2.7 36.9
11:00 1018 30.06 847 25.01 26.5 79.7 21 2.7 36.8
11:05 1018 30.06 847 25.01 26.9 80.5 19 1.7 35.1
11:10 1018 30.06 847 25.01 26.5 79.6 20 2.1 35.7
11:15 1018 30.06 847 25.01 26.4 79.5 20 2 35.6
11:20 1018 30.06 847 25.01 26.5 79.7 21 2.8 37
11:25 1018 30.06 847 25.01 26.7 80 22 3.4 38
11:30 1018 30.06 847 25.01 26.9 80.4 21 3.1 37.5
11:35 1018 30.06 847 25.01 27.2 81 20 2.5 36.4
11:40 1018 30.06 847 25.01 27.7 81.8 19 2.3 36.1
11:45 1018 30.06 847 25.01 28.2 82.7 20 3.6 38.5
11:50 1018 30.06 847 25.01 27.7 81.8 20 3.1 37.5
11:55 1018 30.06 847 25.01 28 82.3 19 2.5 36.5
12:00 1018 30.06 847 25.01 29.1 84.4 18 2.8 37
12:05 1017 30.03 847 25.01 28.4 83.1 19 3.1 37.6
12:10 1017 30.03 847 25.01 28.9 84.1 17 2 35.7
12:15 1017 30.03 847 25.01 29.4 85 17 1.9 35.4
12:20 1017 30.03 847 25.01 29.7 85.4 15 1 33.8
12:25 1017 30.03 846 24.98 29.6 85.4 15 0.5 32.9
12:30 1017 30.03 846 24.98 29.2 84.5 15 0.5 33
12:35 1017 30.03 846 24.98 28.5 83.2 15 0.1 32.2
12:40 1017 30.03 846 24.98 28.1 82.6 15 -0.5 31.1
12:45 1017 30.03 846 24.98 28.6 83.4 15 -0.2 31.6
12:50 1017 30.03 846 24.98 28.2 82.8 15 -0.2 31.6
12:55 1017 30.03 846 24.98 28.1 82.6 15 -0.4 31.4
13:00 1017 30.03 846 24.98 28.2 82.7 17 1.2 34.1
13:05 1017 30.03 846 24.98 28.3 83 15 -0.3 31.4
13:10 1017 30.03 846 24.98 28.5 83.2 16 0.3 32.5
13:15 1017 30.03 846 24.98 28.8 83.8 15 -0.1 31.7
13:20 1017 30.03 846 24.98 28.8 83.9 14 -0.8 30.5
13:25 1017 30.03 846 24.98 29 84.3 13 -1.5 29.3
13:30 1016 30 846 24.98 29.1 84.3 14 -0.6 30.9
13:35 1016 30 846 24.98 29.8 85.6 13 -0.9 30.3
13:40 1016 30 846 24.98 30.1 86.1 13 -1.2 29.9
13:45 1016 30 846 24.98 30.1 86.2 12 -1.7 29
13:50 1016 30 846 24.98 30.1 86.3 12 -2.1 28.3
13:55 1016 30 845 24.95 29.6 85.2 12 -2.4 27.6
14:00 1016 30 845 24.95 29.5 85.2 12 -2.7 27.2
14:05 1016 30 845 24.95 30.3 86.5 11 -2.8 27
14:10 1016 30 845 24.95 31.3 88.3 11 -2.2 28.1
14:15 1016 30 845 24.95 30.9 87.7 11 -2.6 27.3
14:20 1016 30 845 24.95 30.4 86.6 11 -3.3 26.1
14:25 1016 30 845 24.95 30.8 87.4 11 -2.7 27.2
14:30 1016 30 845 24.95 31.6 88.8 10 -3.2 26.3
14:35 1016 30 845 24.95 31.1 88 10 -3.3 26
14:40 1016 30 845 24.95 31.3 88.3 10 -3.9 24.9
14:45 1015 29.97 845 24.95 32 89.7 10 -3.6 25.5
14:50 1015 29.97 845 24.95 31.8 89.2 10 -3.1 26.4
14:55 1015 29.97 844 24.92 31.1 87.9 10 -3.2 26.3
15:00 1015 29.97 844 24.92 31.1 87.9 11 -2.2 28
15:05 1015 29.97 844 24.92 31 87.7 11 -3.1 26.3
15:10 1015 29.97 844 24.92 30.8 87.5 12 -2 28.3
15:15 1015 29.97 844 24.92 30.8 87.4 12 -2.1 28.2
15:20 1015 29.97 844 24.92 30.8 87.5 12 -1.7 28.9
15:25 1015 29.97 844 24.92 30.4 86.8 13 -1.1 30
15:30 1015 29.97 844 24.92 30.7 87.2 12 -1.7 28.9
15:35 1015 29.97 844 24.92 31.3 88.3 11 -2 28.4
15:40 1015 29.97 844 24.92 31.8 89.2 12 -1 30.1
15:45 1015 29.97 844 24.92 31.7 89.1 12 -1 30.2
15:50 1014 29.94 844 24.92 31.5 88.7 12 -1.3 29.6
15:55 1014 29.94 844 24.92 31.8 89.3 12 -1.2 29.9
16:00 1014 29.94 844 24.92 32.1 89.9 11 -1.5 29.2
16:05 1014 29.94 843 24.89 32 89.6 11 -1.2 29.8
16:10 1014 29.94 843 24.89 32.3 90.1 11 -1.7 29
16:15 1014 29.94 843 24.89 31 87.8 12 -1.2 29.9
16:20 1014 29.94 843 24.89 31.6 88.9 12 -1.2 29.9
16:25 1014 29.94 843 24.89 32.4 90.2 12 -0.8 30.5
16:30 1014 29.94 843 24.89 32.4 90.2 11 -1 30.2
16:35 1014 29.94 843 24.89 32 89.7 12 -0.9 30.5
16:40 1014 29.94 843 24.89 31.4 88.5 12 -1 30.2
16:45 1014 29.94 843 24.89 31.7 89 11 -1.8 28.7
16:50 1014 29.94 843 24.89 31.5 88.7 12 -1.4 29.6
16:55 1014 29.94 843 24.89 31.3 88.4 12 -1.4 29.5
17:00 1014 29.94 843 24.89 30.9 87.6 12 -1.8 28.7
17:05 1014 29.94 843 24.89 30.6 87 13 -0.6 30.9
17:10 1014 29.94 844 24.92 29.6 85.2 16 1.1 34
17:15 1014 29.94 844 24.92 27.5 81.5 18 1.3 34.3
17:20 1015 29.97 844 24.92 27 80.6 18 1 33.8
17:25 1015 29.97 844 24.92 26.7 80.1 21 2.7 36.8
17:30 1015 29.97 844 24.92 26.4 79.5 21 2.5 36.4
17:35 1015 29.97 844 24.92 26.1 79 21 2.2 35.9
17:40 1015 29.97 844 24.92 25.8 78.5 22 2.7 36.8
17:45 1015 29.97 844 24.92 25.8 78.4 21 2.3 36.1
17:50 1015 29.97 845 24.95 25.8 78.4 21 2.2 36
17:55 1016 30 845 24.95 25.7 78.2 22 2.5 36.4
18:00 1016 30 845 24.95 25.5 78 23 3.1 37.5
18:05 1016 30 845 24.95 25.1 77.1 24 3.1 37.7
18:10 1016 30 845 24.95 25.2 77.3 23 2.9 37.2
18:15 1016 30 845 24.95 24.9 76.8 22 2.1 35.8
18:20 1016 30 845 24.95 25 77 23 2.7 36.8
18:25 1016 30 845 24.95 25.1 77.1 23 3 37.4
18:30 1016 30 845 24.95 25.1 77.1 23 2.6 36.7
18:35 1016 30 845 24.95 24.9 76.8 22 2.2 35.9
18:40 1016 30 845 24.95 24.8 76.6 22 1.6 34.9
18:45 1015 29.97 845 24.95 24.9 76.8 21 1.3 34.4
18:50 1016 30 845 24.95 24.9 76.9 21 1.2 34.2
18:55 1016 30 845 24.95 25 77 22 1.9 35.5
19:00 1016 30 845 24.95 24.9 76.8 22 2.2 36
19:05 1016 30 845 24.95 24.7 76.4 24 3 37.5
19:10 1016 30 845 24.95 24.6 76.3 21 1.4 34.4
19:15 1016 30 846 24.98 24.6 76.3 22 1.7 35.1
19:20 1016 30 845 24.95 24.5 76.1 22 1.7 35
19:25 1016 30 846 24.98 24.4 75.9 22 1.7 35.1
19:30 1017 30.03 846 24.98 24.3 75.7 22 1.7 35
19:35 1017 30.03 846 24.98 24.3 75.7 23 2 35.5
19:40 1016 30 845 24.95 24.2 75.6 23 1.8 35.2
19:45 1016 30 845 24.95 23.9 74.9 27 3.8 38.8
19:50 1016 30 845 24.95 23.6 74.4 26 3.3 38
19:55 1016 30 845 24.95 23.5 74.3 26 3 37.5
20:00 1016 30 846 24.98 23.4 74.1 26 3.2 37.8
20:05 1016 30 846 24.98 22.8 73.1 36 7 44.6
20:10 1016 30 845 24.95 21.6 70.8 43 8.5 47.3
20:15 1016 30 845 24.95 20.9 69.5 33 4.2 39.6
20:20 1016 30 845 24.95 21 69.7 42 7.9 46.2
20:25 1016 30 845 24.95 20.3 68.6 49 9.5 49
20:30 1016 30 845 24.95 18.8 65.8 53 9.1 48.3
20:35 1016 30 845 24.95 18.4 65.1 53 8.7 47.7
20:40 1015 29.97 845 24.95 18.2 64.7 54 8.8 47.8
20:45 1015 29.97 845 24.95 18.2 64.7 50 7.8 46.1
20:50 1015 29.97 845 24.95 18.3 65 51 8.2 46.8
20:55 1015 29.97 844 24.92 18.4 65 49 7.6 45.6
21:00 1015 29.97 844 24.92 18.5 65.3 51 8.2 46.7
21:05 1015 29.97 844 24.92 18.7 65.6 48 7.6 45.7
21:10 1015 29.97 844 24.92 18.6 65.4 47 7.3 45.2
21:15 1015 29.97 844 24.92 18.3 64.9 49 7.4 45.3
21:20 1015 29.97 844 24.92 17.9 64.2 49 7.1 44.7
21:25 1015 29.97 844 24.92 17.8 64.1 45 6 42.7
21:30 1015 29.97 844 24.92 18.1 64.6 45 6.2 43.1
21:35 1015 29.97 844 24.92 18 64.4 45 6.1 43
21:40 1015 29.97 844 24.92 17.9 64.2 46 6.3 43.4
21:45 1015 29.97 844 24.92 17.6 63.7 46 5.9 42.6
21:50 1015 29.97 844 24.92 18 64.4 38 3.7 38.7
21:55 1015 29.97 844 24.92 18.3 64.9 39 4.3 39.8
22:00 1015 29.97 844 24.92 18.2 64.7 38 3.8 38.9
22:05 1015 29.97 844 24.92 18.6 65.5 36 3.5 38.3
22:10 1015 29.97 844 24.92 18.6 65.5 39 4.5 40.1
22:15 1015 29.97 844 24.92 18.3 64.9 38 3.9 39.1
22:20 1015 29.97 844 24.92 18.4 65.1 40 4.7 40.4
22:25 1015 29.97 844 24.92 18.6 65.4 37 3.8 38.9
22:30 1014 29.94 844 24.92 18.8 65.9 34 2.7 36.9
22:35 1014 29.94 844 24.92 19.3 66.7 33 2.7 36.9
22:40 1014 29.94 844 24.92 19.4 66.9 32 2.6 36.8
22:45 1014 29.94 844 24.92 19.6 67.2 32 2.6 36.7
22:50 1014 29.94 843 24.89 19.9 67.7 31 2.4 36.3
22:55 1014 29.94 843 24.89 20 68 31 2.4 36.3
23:00 1014 29.94 843 24.89 20.1 68.2 30 2.3 36.2
23:05 1014 29.94 843 24.89 20.2 68.3 30 2.3 36.1
23:10 1014 29.94 843 24.89 20.2 68.3 30 2.3 36.2
23:15 1014 29.94 843 24.89 20.2 68.4 30 2.1 35.9
23:20 1014 29.94 843 24.89 20.2 68.4 30 2.2 36
23:25 1014 29.94 843 24.89 20.2 68.4 30 2.1 35.7
23:30 1014 29.94 843 24.89 20.2 68.3 30 2.1 35.7
23:35 1014 29.94 843 24.89 20.3 68.6 30 2.1 35.8
23:40 1014 29.94 843 24.89 20.3 68.6 29 1.9 35.3
23:45 1014 29.94 843 24.89 20.3 68.5 30 2.1 35.8
23:50 1014 29.94 843 24.89 20.2 68.3 29 1.9 35.5
23:55 1014 29.94 843 24.89 20.1 68.2 30 2.1 35.8
24:00 1014 29.94 844 24.92 19.8 67.7 30 1.9 35.5